User: anonymous
Location: Tyler Bend Campground
(35.9875°N, 92.7606°W)
Time: 00:40:36
(UTC-05:00)
Language:

CZ-2C R/B - Orbit

View from above orbital plane
View from above orbital plane
View from above satellite
View from above satellite

Ground track
Ground track

The orbit data is extracted from the following two-line orbital elements,

1 36089U 09061B   14260.12836756  .00000229  00000-0  69326-4 0  4238
2 36089 098.0992 289.4560 0081440 255.9130 154.4570 14.49217985256257
Epoch (UTC): 17 September 2014 03:04:50
Eccentricity: 0.0081440
inclination: 98.0992°
perigee height: 670 km
apogee height: 786 km
right ascension of ascending node: 289.4560°
argument of perigee: 255.9130°
revolutions per day: 14.49217985
mean anomaly at epoch: 154.4570°
orbit number at epoch: 25625

The dashed part of the orbit path shows where the satellite is in the earth's shadow,  

DLR